EW8080 Weather Reports


Display with metric or nautical units.
time (UTC)temp
F
wind
direction
speed
MPH
gust
MPH
rain 1hr
in
rain 24hr
in
rain mn
in
humidity
%
barometer
mb
20200811151052 87 183 7.0 15.0 0.00 0.00 0.00 72 1018.1
20200811150352 87 168 7.0 15.0 0.00 0.00 0.00 72 1018.1
20200811145652 86 184 4.0 10.0 0.00 0.00 0.00 72 1018.1
20200811144952 86 178 5.0 10.0 0.00 0.00 0.00 72 1018.1
20200811144253 86 184 5.0 10.0 0.00 0.00 0.00 71 1018.1
20200811143552 86 188 5.0 10.0 0.00 0.00 0.00 72 1019.1
20200811142852 86 188 6.0 12.0 0.00 0.00 0.00 74 1019.1
20200811142152 85 177 6.0 12.0 0.00 0.00 0.00 73 1019.1
20200811141452 85 176 6.0 12.0 0.00 0.00 0.00 73 1019.1
20200811140119 85 177 7.0 13.0 0.00 0.00 0.00 75 1019.1
20200811061323 74 209 2.0 9.0 0.00 0.00 0.00 100 1018.1
20200811060623 74 226 1.0 8.0 0.00 0.00 0.00 100 1018.1
20200811055923 74 218 0.0 8.0 0.00 0.00 0.00 100 1018.1
20200811055223 74 218 1.0 10.0 0.00 0.00 0.00 100 1017.1
20200811054523 74 225 1.0 8.0 0.00 0.00 0.00 100 1017.1
20200811053823 74 211 0.0 8.0 0.00 0.00 0.00 100 1018.1
20200811053123 74 226 1.0 9.0 0.00 0.00 0.00 100 1018.1
20200811052423 74 233 1.0 9.0 0.00 0.00 0.00 100 1018.1
20200811051723 74 232 2.0 11.0 0.00 0.00 0.00 100 1018.1
20200811051023 74 221 2.0 10.0 0.00 0.00 0.00 100 1018.1
20200811050323 74 193 4.0 10.0 0.00 0.00 0.00 100 1018.1
20200811045623 74 186 3.0 8.0 0.00 0.00 0.00 100 1018.1
20200811044923 74 193 2.0 8.0 0.00 0.00 0.00 100 1018.1
20200811044223 74 232 0.0 8.0 0.00 0.00 0.00 100 1018.1
20200811043523 74 226 1.0 6.0 0.00 0.00 0.00 100 1018.1
20200811042823 74 213 1.0 6.0 0.00 0.00 0.00 100 1018.1
20200811042123 74 0 0.0 6.0 0.00 0.00 0.00 100 1018.1
20200811041423 74 174 0.0 6.0 0.00 0.00 0.00 100 1018.1
20200811040723 74 0 0.0 5.0 0.00 0.00 0.00 100 1018.1
20200811040023 74 0 0.0 5.0 0.00 0.00 0.00 100 1018.1
20200811035323 74 0 0.0 6.0 0.00 0.00 0.00 100 1018.1
20200811034623 74 0 0.0 6.0 0.00 0.00 0.00 100 1018.1
20200811033923 74 0 0.0 5.0 0.00 0.00 0.00 100 1018.1
20200811033223 74 0 0.0 6.0 0.00 0.00 0.00 100 1018.1
20200811032523 75 0 0.0 6.0 0.00 0.00 0.00 100 1018.1
20200811031823 75 214 1.0 8.0 0.00 0.00 0.00 100 1018.1
20200811031123 75 0 0.0 6.0 0.00 0.00 0.00 100 1018.1
20200811030423 75 243 0.0 8.0 0.00 0.00 0.00 100 1018.1
20200811025723 75 233 2.0 10.0 0.00 0.00 0.00 100 1018.1
20200811025023 75 223 1.0 10.0 0.00 0.00 0.00 100 1018.1
20200811024323 75 238 1.0 8.0 0.00 0.00 0.00 100 1018.1
20200811023623 75 223 2.0 10.0 0.00 0.00 0.00 100 1018.1
20200811022923 75 207 3.0 10.0 0.00 0.00 0.00 100 1018.1
20200811022223 75 209 2.0 9.0 0.00 0.00 0.00 100 1018.1
20200811021524 75 213 1.0 8.0 0.00 0.00 0.00 100 1018.1
20200811020823 75 214 3.0 8.0 0.00 0.00 0.00 100 1018.1
20200811020124 75 211 3.0 8.0 0.00 0.00 0.00 100 1018.1
20200811015423 75 224 2.0 9.0 0.00 0.00 0.00 100 1018.1
20200811014723 76 219 1.0 9.0 0.00 0.00 0.00 100 1018.1
20200811014023 76 230 1.0 10.0 0.00 0.00 0.00 100 1018.1
20200811013323 76 228 1.0 6.0 0.00 0.00 0.00 100 1018.1
20200811012623 76 227 3.0 12.0 0.00 0.00 0.00 100 1018.1
20200811011923 76 226 2.0 9.0 0.00 0.00 0.00 98 1018.1
20200811011223 76 211 1.0 8.0 0.00 0.00 0.00 97 1018.1
20200811010523 76 220 1.0 8.0 0.00 0.00 0.00 97 1018.1
20200811005823 76 223 1.0 8.0 0.00 0.00 0.00 96 1018.1
20200811005123 76 190 1.0 8.0 0.00 0.00 0.00 96 1018.1
20200811004423 76 225 2.0 11.0 0.00 0.00 0.00 94 1018.1
20200811003723 76 219 1.0 8.0 0.00 0.00 0.00 92 1018.1
20200811003111 76 231 3.0 17.0 0.00 0.00 0.00 91 1018.1
20200811002534 76 222 3.0 9.0 0.00 0.00 0.00 90 1017.1
20200810235717 78 196 5.0 13.0 0.00 0.00 0.00 83 1018.1
20200810234825 78 212 4.0 16.0 0.00 0.00 0.00 80 1018.1
20200810234328 78 222 3.0 16.0 0.00 0.00 0.00 78 1018.1
20200810233447 78 229 4.0 10.0 0.00 0.00 0.00 77 1018.1
20200810233051 79 201 4.0 12.0 0.00 0.00 0.00 75 1018.1
20200810232048 79 208 5.0 14.0 0.00 0.00 0.00 74 1017.1
20200810231716 79 220 4.0 14.0 0.00 0.00 0.00 73 1017.1
20200810224758 81 198 4.0 12.0 0.00 0.00 0.00 71 1017.1
20200810223501 81 199 3.0 12.0 0.00 0.00 0.00 71 1017.1
20200810222611 81 199 4.0 12.0 0.00 0.00 0.00 69 1017.1
20200810221803 81 205 5.0 15.0 0.00 0.00 0.00 70 1017.1
20200810221040 81 203 5.0 13.0 0.00 0.00 0.00 70 1017.1
20200810220331 81 193 5.0 13.0 0.00 0.00 0.00 70 1017.1
20200810220136 82 199 6.0 13.0 0.00 0.00 0.00 68 1017.1
20200810214333 82 191 7.0 16.0 0.00 0.00 0.00 66 1017.1
20200810213523 83 203 6.0 16.0 0.00 0.00 0.00 65 1017.1
20200810212823 83 214 5.0 13.0 0.00 0.00 0.00 66 1017.1
20200810212123 83 223 5.0 15.0 0.00 0.00 0.00 66 1017.1
20200810211423 83 213 6.0 12.0 0.00 0.00 0.00 66 1017.1
20200810211000 83 205 5.0 13.0 0.00 0.00 0.00 70 1017.1
20200810205337 83 174 6.0 16.0 0.00 0.00 0.00 68 1018.1
20200810204623 83 196 7.0 14.0 0.00 0.00 0.00 70 1018.1
20200810203923 83 211 6.0 15.0 0.00 0.00 0.00 71 1018.1
20200810203223 83 211 6.0 15.0 0.00 0.00 0.00 70 1018.1
20200810202523 83 205 7.0 13.0 0.00 0.00 0.00 70 1018.1
20200810201823 83 197 8.0 14.0 0.00 0.00 0.00 71 1018.1
20200810201123 84 208 7.0 14.0 0.00 0.00 0.00 70 1018.1
20200810200423 84 201 6.0 10.0 0.00 0.00 0.00 70 1018.1
20200810195723 84 204 8.0 19.0 0.00 0.00 0.00 70 1018.1
20200810195023 84 207 7.0 20.0 0.00 0.00 0.00 70 1018.1
20200810194323 85 188 6.0 16.0 0.00 0.00 0.00 68 1018.1
20200810193623 84 196 7.0 13.0 0.00 0.00 0.00 69 1018.1
20200810192923 84 198 6.0 16.0 0.00 0.00 0.00 67 1018.1
20200810192223 84 208 6.0 16.0 0.00 0.00 0.00 69 1018.1
20200810191523 84 211 7.0 14.0 0.00 0.00 0.00 71 1018.1
20200810190823 84 184 8.0 16.0 0.00 0.00 0.00 71 1018.1
20200810190123 84 191 8.0 16.0 0.00 0.00 0.00 69 1018.1
20200810185423 84 187 8.0 15.0 0.00 0.00 0.00 70 1018.1
20200810184723 84 201 8.0 17.0 0.00 0.00 0.00 70 1018.1
20200810184023 84 192 8.0 16.0 0.00 0.00 0.00 70 1018.1
20200810183323 85 206 6.0 16.0 0.00 0.00 0.00 71 1018.1
20200810182623 84 196 7.0 16.0 0.00 0.00 0.00 71 1018.1
20200810181923 84 197 7.0 14.0 0.00 0.00 0.00 70 1018.1
20200810181223 84 210 6.0 17.0 0.00 0.00 0.00 69 1018.1
20200810180523 84 210 6.0 16.0 0.00 0.00 0.00 72 1018.1
20200810175823 84 184 8.0 16.0 0.00 0.00 0.00 72 1018.1
20200810175123 84 186 8.0 16.0 0.00 0.00 0.00 73 1018.1
20200810174424 84 185 8.0 17.0 0.00 0.00 0.00 72 1018.1
20200810173723 84 190 8.0 17.0 0.00 0.00 0.00 71 1018.1
20200810173023 85 188 8.0 19.0 0.00 0.00 0.00 70 1018.1
20200810172323 85 193 8.0 19.0 0.00 0.00 0.00 70 1018.1
20200810171623 85 191 8.0 13.0 0.00 0.00 0.00 70 1018.1
20200810170923 85 171 8.0 19.0 0.00 0.00 0.00 69 1019.1
20200810170223 86 183 8.0 19.0 0.00 0.00 0.00 68 1019.1
20200810165523 86 196 7.0 12.0 0.00 0.00 0.00 68 1019.1
20200810164823 86 189 6.0 12.0 0.00 0.00 0.00 68 1019.1
20200810164123 86 186 7.0 12.0 0.00 0.00 0.00 68 1019.1
20200810163423 86 177 8.0 13.0 0.00 0.00 0.00 68 1019.1
20200810163113 87 183 7.0 13.0 0.00 0.00 0.00 67 1019.1
20200810162558 86 185 7.0 12.0 0.00 0.00 0.00 68 1019.1
20200810161726 86 194 6.0 9.0 0.00 0.00 0.00 69 1019.1
20200810160623 86 189 6.0 13.0 0.00 0.00 0.00 69 1018.1
20200810160051 86 186 6.0 13.0 0.00 0.00 0.00 70 1018.1
20200810155240 85 174 8.0 13.0 0.00 0.00 0.00 70 1019.1
20200810154812 85 174 7.0 13.0 0.00 0.00 0.00 69 1019.1
20200810154219 85 170 8.0 14.0 0.00 0.00 0.00 69 1019.1
20200810152423 85 175 7.0 13.0 0.00 0.00 0.00 69 1019.1
20200810151723 85 172 6.0 10.0 0.00 0.00 0.00 69 1019.1